N571GT KHND-KAPA

Flight info

Callsign N571GT
Flight time N/A
Altitude 35000
Route SCAMR4 HOCEE STIFS
Aircraft C525/L-SDFGRWY/S

Departure

Time N/A
Airport Henderson Executive Airport (KHND)

Arrival

Time 2026-05-06 03:18
Airport Centennial Airport (KAPA)
Time Latitude Longitude Altitude Speed Heading
2026-05-06 02:10 36.11999 -111.97880 35062 ft 469 kts 85°
2026-05-06 02:10 36.12563 -111.93904 35065 ft 472 kts 84°
2026-05-06 02:11 36.13699 -111.85877 35291 ft 464 kts 83°
2026-05-06 02:11 36.14248 -111.81993 36038 ft 449 kts 82°
2026-05-06 02:11 36.14768 -111.78296 36356 ft 432 kts 82°
2026-05-06 02:12 36.15272 -111.74693 36806 ft 417 kts 81°
2026-05-06 02:12 36.15760 -111.71184 36924 ft 414 kts 82°
2026-05-06 02:12 36.16730 -111.64198 36957 ft 412 kts 82°
2026-05-06 02:13 36.17723 -111.57164 36968 ft 411 kts 80°
2026-05-06 02:13 36.19338 -111.50408 36966 ft 411 kts 69°
2026-05-06 02:14 36.21978 -111.44167 36947 ft 411 kts 58°
2026-05-06 02:14 36.25001 -111.38133 36953 ft 410 kts 58°
2026-05-06 02:15 36.27834 -111.31947 36961 ft 410 kts 62°
2026-05-06 02:15 36.30491 -111.25648 36956 ft 409 kts 63°
2026-05-06 02:16 36.33093 -111.19385 36972 ft 409 kts 63°
2026-05-06 02:16 36.35731 -111.13106 36962 ft 409 kts 62°
2026-05-06 02:17 36.38367 -111.06876 36964 ft 409 kts 62°
2026-05-06 02:17 36.41037 -111.00561 36952 ft 409 kts 62°
2026-05-06 02:18 36.43669 -110.94306 36949 ft 410 kts 62°
2026-05-06 02:18 36.46330 -110.87971 36947 ft 410 kts 62°
2026-05-06 02:19 36.48961 -110.81692 36959 ft 410 kts 62°
2026-05-06 02:19 36.50277 -110.78550 36814 ft 410 kts 62°
2026-05-06 02:19 36.51582 -110.75429 37005 ft 409 kts 62°
2026-05-06 02:20 36.55537 -110.65950 36935 ft 409 kts 62°
2026-05-06 02:21 36.58164 -110.59641 36957 ft 409 kts 62°
2026-05-06 02:21 36.60798 -110.53303 36955 ft 410 kts 62°
2026-05-06 02:22 36.63420 -110.46979 36949 ft 411 kts 62°
2026-05-06 02:22 36.66049 -110.40627 36933 ft 413 kts 62°
2026-05-06 02:23 36.68679 -110.34261 36938 ft 413 kts 63°
2026-05-06 02:23 36.71320 -110.27853 36948 ft 413 kts 63°
2026-05-06 02:24 36.73944 -110.21474 36935 ft 413 kts 63°
2026-05-06 02:24 36.76559 -110.15103 36943 ft 413 kts 63°
2026-05-06 02:25 36.79178 -110.08714 36929 ft 414 kts 63°
2026-05-06 02:25 36.81812 -110.02274 36923 ft 414 kts 63°
2026-05-06 02:26 36.84439 -109.95838 36921 ft 414 kts 63°
2026-05-06 02:26 36.87039 -109.89456 36929 ft 414 kts 63°
2026-05-06 02:26 36.88353 -109.86224 37054 ft 415 kts 63°
2026-05-06 02:27 36.89652 -109.83028 36947 ft 418 kts 63°
2026-05-06 02:27 36.92279 -109.76552 36916 ft 419 kts 63°
2026-05-06 02:28 36.94927 -109.70013 36921 ft 419 kts 63°
2026-05-06 02:28 36.97548 -109.63523 36923 ft 419 kts 63°
2026-05-06 02:29 37.00190 -109.56970 36901 ft 420 kts 63°
2026-05-06 02:29 37.02813 -109.50452 36911 ft 420 kts 63°
2026-05-06 02:30 37.05438 -109.43916 36911 ft 421 kts 63°
2026-05-06 02:30 37.08058 -109.37376 36917 ft 421 kts 63°
2026-05-06 02:31 37.10692 -109.30788 36901 ft 421 kts 63°
2026-05-06 02:31 37.13352 -109.24120 36924 ft 421 kts 63°
2026-05-06 02:32 37.15971 -109.17545 36921 ft 420 kts 63°
2026-05-06 02:32 37.18583 -109.10971 36926 ft 421 kts 63°
2026-05-06 02:33 37.21198 -109.04377 36917 ft 421 kts 64°
2026-05-06 02:33 37.22065 -109.02187 36917 ft 421 kts 64°
2026-05-06 02:34 37.26418 -108.91170 36930 ft 422 kts 63°
2026-05-06 02:34 37.29048 -108.84498 36920 ft 423 kts 63°
2026-05-06 02:35 37.31651 -108.77878 36942 ft 424 kts 63°
2026-05-06 02:35 37.34264 -108.71217 36933 ft 425 kts 63°
2026-05-06 02:36 37.36888 -108.64514 36920 ft 422 kts 63°
2026-05-06 02:36 37.39476 -108.57890 36953 ft 422 kts 63°
2026-05-06 02:37 37.42074 -108.51228 36952 ft 424 kts 63°
2026-05-06 02:37 37.44671 -108.44552 36977 ft 425 kts 63°
2026-05-06 02:38 37.47269 -108.37861 36990 ft 426 kts 63°
2026-05-06 02:38 37.49906 -108.31051 37004 ft 426 kts 64°
2026-05-06 02:39 37.52504 -108.24332 37016 ft 426 kts 64°
2026-05-06 02:39 37.55085 -108.17638 37028 ft 427 kts 64°
2026-05-06 02:40 37.57677 -108.10902 37037 ft 427 kts 64°
2026-05-06 02:40 37.60277 -108.04131 37040 ft 428 kts 64°
2026-05-06 02:41 37.62869 -107.97364 37038 ft 429 kts 64°
2026-05-06 02:41 37.65478 -107.90543 37031 ft 429 kts 64°
2026-05-06 02:42 37.68070 -107.83748 37032 ft 429 kts 64°
2026-05-06 02:42 37.70658 -107.76946 37034 ft 429 kts 64°
2026-05-06 02:43 37.73241 -107.70145 37029 ft 430 kts 64°
2026-05-06 02:43 37.75821 -107.63335 37027 ft 431 kts 64°
2026-05-06 02:44 37.78423 -107.56454 37033 ft 431 kts 64°
2026-05-06 02:44 37.80997 -107.49632 37037 ft 432 kts 64°
2026-05-06 02:45 37.83602 -107.42710 37179 ft 433 kts 64°
2026-05-06 02:45 37.84915 -107.39216 37078 ft 437 kts 64°
2026-05-06 02:45 37.86234 -107.35702 37061 ft 438 kts 64°
2026-05-06 02:46 37.88863 -107.28687 37054 ft 438 kts 65°
2026-05-06 02:46 37.91477 -107.21692 37059 ft 438 kts 64°
2026-05-06 02:47 37.94072 -107.14733 37059 ft 438 kts 65°
2026-05-06 02:47 37.96673 -107.07742 37061 ft 438 kts 65°
2026-05-06 02:48 37.99256 -107.00787 37068 ft 438 kts 65°
2026-05-06 02:48 38.01852 -106.93775 37066 ft 439 kts 65°
2026-05-06 02:49 38.04439 -106.86777 37063 ft 440 kts 64°
2026-05-06 02:49 38.07064 -106.79663 37054 ft 440 kts 65°
2026-05-06 02:50 38.09645 -106.72639 37051 ft 441 kts 65°
2026-05-06 02:50 38.12291 -106.65423 37048 ft 442 kts 65°
2026-05-06 02:50 38.13596 -106.61861 36900 ft 442 kts 64°
2026-05-06 02:51 38.14882 -106.58346 37001 ft 439 kts 65°
2026-05-06 02:51 38.17450 -106.51313 37034 ft 440 kts 64°
2026-05-06 02:52 38.20038 -106.44212 37018 ft 442 kts 65°
2026-05-06 02:52 38.22622 -106.37103 37016 ft 443 kts 65°
2026-05-06 02:53 38.25226 -106.29922 37004 ft 443 kts 65°
2026-05-06 02:53 38.27814 -106.22768 36673 ft 449 kts 64°
2026-05-06 02:53 38.29122 -106.19143 36241 ft 453 kts 64°
2026-05-06 02:54 38.30448 -106.15466 35745 ft 455 kts 64°
2026-05-06 02:54 38.31779 -106.11773 35309 ft 457 kts 64°
2026-05-06 02:54 38.33097 -106.08112 34828 ft 458 kts 64°
2026-05-06 02:54 38.34435 -106.04389 34322 ft 459 kts 64°
2026-05-06 02:55 38.35814 -106.00743 33828 ft 458 kts 60°
2026-05-06 02:55 38.37540 -105.97352 33301 ft 453 kts 47°
2026-05-06 02:55 38.39817 -105.94763 32828 ft 441 kts 31°
2026-05-06 02:55 38.42466 -105.92776 32316 ft 433 kts 23°
2026-05-06 02:56 38.45057 -105.90921 31852 ft 431 kts 26°
2026-05-06 02:56 38.47599 -105.88880 31360 ft 428 kts 29°
2026-05-06 02:56 38.50054 -105.86747 30860 ft 425 kts 30°
2026-05-06 02:56 38.52477 -105.84563 30355 ft 421 kts 32°
2026-05-06 02:57 38.54823 -105.82427 29741 ft 417 kts 32°
2026-05-06 02:57 38.57144 -105.80312 29125 ft 413 kts 32°
2026-05-06 02:57 38.59446 -105.78220 28505 ft 410 kts 32°
2026-05-06 02:57 38.61753 -105.76124 27883 ft 407 kts 32°
2026-05-06 02:58 38.64060 -105.74028 27258 ft 405 kts 32°
2026-05-06 02:58 38.66363 -105.71934 26632 ft 403 kts 32°
2026-05-06 02:58 38.68648 -105.69855 26010 ft 402 kts 32°
2026-05-06 02:58 38.70452 -105.68213 25528 ft 401 kts 32°
2026-05-06 02:59 38.72702 -105.66163 24926 ft 400 kts 33°
2026-05-06 02:59 38.74983 -105.64084 24312 ft 399 kts 33°
2026-05-06 02:59 38.77248 -105.62017 23699 ft 398 kts 32°
2026-05-06 02:59 38.79506 -105.59954 23111 ft 397 kts 33°
2026-05-06 03:00 38.81747 -105.57906 22534 ft 396 kts 32°
2026-05-06 03:00 38.83971 -105.55872 21959 ft 394 kts 32°
2026-05-06 03:00 38.86179 -105.53849 21389 ft 391 kts 32°
2026-05-06 03:00 38.88390 -105.51823 20820 ft 389 kts 32°
2026-05-06 03:01 38.90585 -105.49810 20254 ft 386 kts 32°
2026-05-06 03:01 38.92745 -105.47827 19687 ft 381 kts 32°
2026-05-06 03:01 38.94881 -105.45866 19119 ft 377 kts 31°
2026-05-06 03:01 38.96985 -105.43932 18557 ft 372 kts 31°
2026-05-06 03:02 38.99077 -105.42007 17981 ft 366 kts 31°
2026-05-06 03:02 39.01117 -105.40128 17414 ft 361 kts 31°
2026-05-06 03:02 39.03131 -105.38274 16849 ft 357 kts 31°
2026-05-06 03:02 39.05107 -105.36376 16282 ft 355 kts 35°
2026-05-06 03:03 39.06936 -105.34262 15709 ft 352 kts 41°
2026-05-06 03:03 39.08664 -105.32048 15142 ft 347 kts 43°
2026-05-06 03:03 39.10315 -105.29916 14974 ft 328 kts 42°
2026-05-06 03:03 39.11876 -105.27933 14957 ft 309 kts 41°
2026-05-06 03:04 39.13325 -105.26121 14956 ft 295 kts 41°
2026-05-06 03:04 39.14757 -105.24344 14970 ft 284 kts 40°
2026-05-06 03:04 39.16188 -105.22580 14978 ft 275 kts 40°
2026-05-06 03:04 39.17516 -105.20862 14987 ft 269 kts 46°
2026-05-06 03:05 39.18567 -105.18908 14981 ft 268 kts 59°
2026-05-06 03:05 39.19210 -105.16675 14925 ft 267 kts 75°
2026-05-06 03:05 39.19417 -105.14271 14671 ft 270 kts 90°
2026-05-06 03:05 39.19292 -105.11891 14458 ft 268 kts 95°
2026-05-06 03:06 39.19161 -105.09526 14204 ft 267 kts 93°
2026-05-06 03:06 39.19095 -105.07163 14004 ft 263 kts 91°
2026-05-06 03:06 39.19012 -105.04844 13750 ft 261 kts 96°
2026-05-06 03:06 39.18731 -105.02538 13411 ft 260 kts 104°
2026-05-06 03:07 39.18311 -105.00300 13132 ft 256 kts 105°
2026-05-06 03:07 39.17896 -104.98119 12867 ft 252 kts 103°
2026-05-06 03:07 39.17509 -104.95940 12543 ft 250 kts 102°
2026-05-06 03:07 39.17165 -104.93764 12229 ft 245 kts 98°
2026-05-06 03:08 39.17221 -104.91600 11976 ft 236 kts 77°
2026-05-06 03:08 39.17772 -104.89700 11920 ft 219 kts 62°
2026-05-06 03:08 39.18528 -104.88088 11906 ft 203 kts 56°
2026-05-06 03:08 39.19261 -104.86601 11900 ft 190 kts 57°
2026-05-06 03:09 39.19962 -104.85173 11689 ft 189 kts 52°
2026-05-06 03:09 39.20885 -104.83980 11481 ft 186 kts 34°
2026-05-06 03:09 39.22026 -104.83246 11224 ft 184 kts 15°
2026-05-06 03:09 39.23286 -104.83012 10959 ft 182 kts 358°
2026-05-06 03:10 39.24508 -104.83312 10667 ft 180 kts 333°
2026-05-06 03:10 39.25684 -104.83740 10373 ft 181 kts 352°
2026-05-06 03:10 39.26947 -104.83802 10122 ft 178 kts
2026-05-06 03:10 39.28179 -104.83803 9829 ft 179 kts
2026-05-06 03:11 39.29419 -104.83832 9558 ft 177 kts
2026-05-06 03:11 39.30625 -104.83878 9283 ft 176 kts 360°
2026-05-06 03:11 39.31836 -104.83928 9005 ft 174 kts 359°
2026-05-06 03:11 39.33043 -104.83983 8761 ft 170 kts 359°
2026-05-06 03:12 39.34168 -104.84036 8707 ft 154 kts 359°
2026-05-06 03:12 39.35166 -104.84083 8693 ft 130 kts 357°
2026-05-06 03:12 39.35952 -104.84117 8714 ft 119 kts 356°
2026-05-06 03:12 39.36786 -104.84157 8790 ft 118 kts
2026-05-06 03:13 39.37660 -104.84193 8780 ft 133 kts 360°
2026-05-06 03:13 39.38612 -104.84241 8750 ft 140 kts 359°
2026-05-06 03:13 39.39588 -104.84283 8757 ft 142 kts 359°
2026-05-06 03:13 39.40605 -104.84330 8701 ft 149 kts 358°
2026-05-06 03:14 39.41629 -104.84378 8707 ft 148 kts 358°
2026-05-06 03:14 39.42674 -104.84426 8645 ft 145 kts 359°
2026-05-06 03:14 39.43682 -104.84471 8320 ft 147 kts 359°
2026-05-06 03:14 39.44693 -104.84517 8032 ft 141 kts 357°
2026-05-06 03:15 39.45621 -104.84560 7940 ft 128 kts 358°
2026-05-06 03:15 39.46510 -104.84602 7752 ft 124 kts 358°
2026-05-06 03:15 39.47350 -104.84639 7569 ft 121 kts 357°
2026-05-06 03:15 39.48183 -104.84678 7411 ft 117 kts 357°
2026-05-06 03:16 39.48983 -104.84715 7267 ft 115 kts 358°
2026-05-06 03:16 39.49780 -104.84750 7098 ft 115 kts 356°
2026-05-06 03:16 39.50572 -104.84788 6950 ft 115 kts 357°
2026-05-06 03:16 39.51361 -104.84823 6791 ft 115 kts 357°
2026-05-06 03:17 39.52163 -104.84861 6631 ft 115 kts 357°
2026-05-06 03:17 39.52955 -104.84897 6469 ft 115 kts 356°
2026-05-06 03:17 39.53751 -104.84933 6309 ft 115 kts 357°
2026-05-06 03:17 39.54532 -104.84969 6154 ft 114 kts 357°
2026-05-06 03:18 39.55342 -104.85005 6017 ft 115 kts 358°
2026-05-06 03:18 39.56137 -104.85043 5859 ft 105 kts 357°
2026-05-06 03:18 39.56601 -104.85063 5848 ft 22 kts
2026-05-06 03:18 39.56690 -104.85012 5846 ft 11 kts 26°
2026-05-06 03:19 39.56755 -104.84968 5843 ft 2 kts 29°
2026-05-06 03:19 39.56763 -104.84963 5843 ft 3 kts 29°
2026-05-06 03:19 39.56780 -104.84950 5842 ft 0 kts 30°
2026-05-06 03:20 39.56797 -104.84939 5842 ft 6 kts 21°
2026-05-06 03:20 39.56854 -104.84934 5840 ft 8 kts 358°
2026-05-06 03:20 39.56916 -104.84937 5838 ft 9 kts 358°
2026-05-06 03:21 39.56985 -104.84941 5835 ft 10 kts 357°
2026-05-06 03:21 39.57065 -104.84945 5832 ft 12 kts 356°
2026-05-06 03:21 39.57124 -104.84943 5830 ft 5 kts 32°
2026-05-06 03:21 39.57132 -104.84901 5830 ft 4 kts 88°
2026-05-06 03:22 39.57129 -104.84860 5829 ft 5 kts 118°
2026-05-06 03:22 39.57101 -104.84817 5830 ft 5 kts 142°
2026-05-06 03:22 39.57068 -104.84798 5831 ft 5 kts 163°
2026-05-06 03:22 39.57044 -104.84792 5831 ft 1 kts 173°
2026-05-06 03:23 39.57042 -104.84792 5831 ft 0 kts 174°
2026-05-06 03:24 39.57041 -104.84792 5832 ft 0 kts 178°